When you browse on this site, cookies collect data to enhance your experience and personalize the content and advertising you see.
Visit our Privacy Policy to learn more. By continuing to use the site, you agree to this use of cookies and data.
  • In Österreich
  • Länderverzeichnis
  • Für 7 Tage
  • Wassertemperatur
  • Wetterkarte
  • News
  • Widgets
  • user-avatar
    Anmelden

    Stündliche Wetter Tepepa

    Heute, 23 August, Freitag

    Zeit Temperatur Niederschläge Wind Luftdruck Luftfeuchtigkeit
    00:00 +15°C° 1.5 mm 1 m/S 585 mmHg 96%
    01:00 +15°C° 1.5 mm 2 m/S 585 mmHg 94%
    02:00 +15°C° 1.5 mm 2 m/S 585 mmHg 92%
    03:00 +15°C° 0.3 mm 2 m/S 585 mmHg 92%
    04:00 +14°C° 0.3 mm 2 m/S 585 mmHg 91%
    05:00 +14°C° 0 mm 1 m/S 585 mmHg 89%
    06:00 +16°C° 0 mm 1 m/S 586 mmHg 83%
    07:00 +18°C° 0 mm 1 m/S 587 mmHg 78%
    08:00 +20°C° 0 mm 1 m/S 587 mmHg 73%
    09:00 +21°C° 0.8 mm 1 m/S 588 mmHg 72%
    10:00 +21°C° 0.8 mm 2 m/S 588 mmHg 71%
    11:00 +21°C° 0.8 mm 2 m/S 588 mmHg 71%
    12:00 +20°C° 2 mm 2 m/S 587 mmHg 77%
    13:00 +20°C° 2 mm 1 m/S 586 mmHg 83%
    14:00 +19°C° 2 mm 1 m/S 585 mmHg 89%
    15:00 +18°C° 1.8 mm 1 m/S 584 mmHg 90%
    16:00 +16°C° 1.8 mm 1 m/S 584 mmHg 91%
    17:00 +16°C° 1.8 mm 1 m/S 584 mmHg 92%
    18:00 +15°C° 0.5 mm 2 m/S 584 mmHg 91%
    19:00 +15°C° 0.5 mm 2 m/S 585 mmHg 90%
    20:00 +15°C° 0.5 mm 2 m/S 585 mmHg 89%
    21:00 +14°C° 0 mm 2 m/S 585 mmHg 88%
    22:00 +14°C° 0 mm 2 m/S 585 mmHg 87%
    23:00 +14°C° 0 mm 2 m/S 585 mmHg 86%

    Morgen, 24 August, Samstag

    Zeit Temperatur Niederschläge Wind Luftdruck Luftfeuchtigkeit
    00:00 +14°C° 0 mm 2 m/S 585 mmHg 86%
    01:00 +14°C° 0 mm 2 m/S 584 mmHg 85%
    02:00 +14°C° 0 mm 2 m/S 584 mmHg 84%
    03:00 +14°C° 0 mm 2 m/S 584 mmHg 83%
    04:00 +14°C° 0 mm 2 m/S 584 mmHg 82%
    05:00 +14°C° 0 mm 2 m/S 584 mmHg 81%
    06:00 +16°C° 0 mm 1 m/S 586 mmHg 75%
    07:00 +19°C° 0 mm 1 m/S 587 mmHg 69%
    08:00 +19°C° 0 mm 0 m/S 588 mmHg 63%
    09:00 +22°C° 0.3 mm 1 m/S 588 mmHg 63%
    10:00 +23°C° 0.3 mm 2 m/S 588 mmHg 63%
    11:00 +23°C° 0.3 mm 2 m/S 588 mmHg 63%
    12:00 +23°C° 1.5 mm 2 m/S 588 mmHg 67%
    13:00 +23°C° 1.5 mm 2 m/S 587 mmHg 71%
    14:00 +21°C° 1.5 mm 2 m/S 587 mmHg 75%
    15:00 +20°C° 1.1 mm 2 m/S 586 mmHg 79%
    16:00 +20°C° 1.1 mm 2 m/S 586 mmHg 84%
    17:00 +20°C° 1.1 mm 1 m/S 585 mmHg 89%
    18:00 +19°C° 0.5 mm 1 m/S 585 mmHg 91%
    19:00 +18°C° 0.5 mm 1 m/S 585 mmHg 92%
    20:00 +16°C° 0.5 mm 1 m/S 585 mmHg 94%
    21:00 +15°C° 0.1 mm 1 m/S 585 mmHg 92%
    22:00 +15°C° 0.1 mm 1 m/S 585 mmHg 89%
    23:00 +15°C° 0.1 mm 1 m/S 585 mmHg 87%

    übermorgen, 25 August, Sonntag

    Zeit Temperatur Niederschläge Wind Luftdruck Luftfeuchtigkeit
    00:00 +14°C° 0 mm 1 m/S 585 mmHg 87%
    01:00 +14°C° 0 mm 1 m/S 584 mmHg 87%
    02:00 +14°C° 0 mm 1 m/S 584 mmHg 86%
    03:00 +14°C° 0 mm 1 m/S 584 mmHg 86%
    04:00 +13°C° 0 mm 1 m/S 584 mmHg 85%
    05:00 +13°C° 0 mm 2 m/S 584 mmHg 84%
    06:00 +16°C° 0 mm 1 m/S 585 mmHg 78%
    07:00 +19°C° 0 mm 1 m/S 587 mmHg 71%
    08:00 +19°C° 0 mm 0 m/S 588 mmHg 65%
    09:00 +23°C° 0 mm 1 m/S 588 mmHg 62%
    10:00 +24°C° 0 mm 1 m/S 588 mmHg 59%
    11:00 +25°C° 0 mm 2 m/S 589 mmHg 57%
    12:00 +24°C° 1.6 mm 2 m/S 587 mmHg 66%
    13:00 +23°C° 1.6 mm 2 m/S 586 mmHg 75%
    14:00 +21°C° 1.6 mm 2 m/S 585 mmHg 83%
    15:00 +20°C° 1.1 mm 2 m/S 585 mmHg 86%
    16:00 +20°C° 1.1 mm 1 m/S 585 mmHg 89%
    17:00 +20°C° 1.1 mm 1 m/S 584 mmHg 91%
    18:00 +19°C° 0.6 mm 1 m/S 584 mmHg 92%
    19:00 +18°C° 0.6 mm 1 m/S 584 mmHg 92%
    20:00 +16°C° 0.6 mm 1 m/S 584 mmHg 93%
    21:00 +15°C° 0.2 mm 1 m/S 584 mmHg 91%
    22:00 +15°C° 0.2 mm 1 m/S 584 mmHg 89%
    23:00 +15°C° 0.2 mm 1 m/S 584 mmHg 87%

    26 August, Montag

    Zeit Temperatur Niederschläge Wind Luftdruck Luftfeuchtigkeit
    00:00 +14°C° 0.2 mm 2 m/S 583 mmHg 87%
    01:00 +14°C° 0.2 mm 2 m/S 583 mmHg 87%
    02:00 +14°C° 0.2 mm 2 m/S 583 mmHg 87%
    03:00 +14°C° 0.1 mm 2 m/S 583 mmHg 86%
    04:00 +14°C° 0.1 mm 2 m/S 583 mmHg 86%
    05:00 +13°C° 0.1 mm 2 m/S 583 mmHg 86%
    06:00 +16°C° 0 mm 1 m/S 584 mmHg 79%
    07:00 +19°C° 0 mm 1 m/S 586 mmHg 72%
    08:00 +21°C° 0 mm 1 m/S 587 mmHg 65%
    09:00 +23°C° 0 mm 1 m/S 587 mmHg 62%
    10:00 +24°C° 0 mm 1 m/S 587 mmHg 59%
    11:00 +25°C° 0 mm 2 m/S 588 mmHg 56%
    12:00 +24°C° 0.7 mm 2 m/S 587 mmHg 63%
    13:00 +23°C° 0.7 mm 2 m/S 586 mmHg 70%
    14:00 +21°C° 0.7 mm 2 m/S 584 mmHg 77%
    15:00 +21°C° 0.7 mm 2 m/S 584 mmHg 80%
    16:00 +20°C° 0.7 mm 2 m/S 584 mmHg 82%
    17:00 +19°C° 0.7 mm 2 m/S 584 mmHg 85%
    18:00 +18°C° 0.1 mm 2 m/S 583 mmHg 88%
    19:00 +16°C° 0.1 mm 1 m/S 583 mmHg 90%
    20:00 +15°C° 0.1 mm 1 m/S 583 mmHg 93%
    21:00 +15°C° 0 mm 1 m/S 583 mmHg 90%
    22:00 +14°C° 0 mm 1 m/S 583 mmHg 88%
    23:00 +14°C° 0 mm 1 m/S 583 mmHg 86%

    27 August, Dienstag

    Zeit Temperatur Niederschläge Wind Luftdruck Luftfeuchtigkeit
    00:00 +14°C° 0.1 mm 1 m/S 583 mmHg 85%
    01:00 +14°C° 0.1 mm 1 m/S 583 mmHg 85%
    02:00 +14°C° 0.1 mm 1 m/S 583 mmHg 84%
    03:00 +14°C° 0.1 mm 1 m/S 583 mmHg 84%
    04:00 +14°C° 0.1 mm 1 m/S 583 mmHg 84%
    05:00 +14°C° 0.1 mm 1 m/S 583 mmHg 83%
    06:00 +16°C° 0 mm 1 m/S 584 mmHg 78%
    07:00 +19°C° 0 mm 1 m/S 585 mmHg 72%
    08:00 +19°C° 0 mm 0 m/S 587 mmHg 66%
    09:00 +21°C° 0.4 mm 1 m/S 587 mmHg 66%
    10:00 +22°C° 0.4 mm 1 m/S 587 mmHg 67%
    11:00 +23°C° 0.4 mm 2 m/S 587 mmHg 67%
    12:00 +21°C° 1 mm 2 m/S 586 mmHg 72%
    13:00 +20°C° 1 mm 2 m/S 585 mmHg 78%
    14:00 +20°C° 1 mm 2 m/S 584 mmHg 83%
    15:00 +19°C° 1 mm 2 m/S 584 mmHg 86%
    16:00 +19°C° 1 mm 1 m/S 584 mmHg 89%
    17:00 +19°C° 1 mm 1 m/S 584 mmHg 92%
    18:00 +18°C° 0.6 mm 1 m/S 584 mmHg 93%
    19:00 +16°C° 0.6 mm 1 m/S 584 mmHg 95%
    20:00 +15°C° 0.6 mm 1 m/S 585 mmHg 96%
    21:00 +15°C° 1.3 mm 1 m/S 585 mmHg 95%
    22:00 +15°C° 1.3 mm 1 m/S 585 mmHg 94%
    23:00 +15°C° 1.3 mm 1 m/S 585 mmHg 93%

    28 August, Mittwoch

    Zeit Temperatur Niederschläge Wind Luftdruck Luftfeuchtigkeit
    00:00 +15°C° 1.1 mm 1 m/S 585 mmHg 91%
    01:00 +14°C° 1.1 mm 1 m/S 584 mmHg 90%
    02:00 +14°C° 1.1 mm 1 m/S 584 mmHg 89%
    03:00 +14°C° 0.8 mm 1 m/S 584 mmHg 88%
    04:00 +14°C° 0.8 mm 1 m/S 584 mmHg 88%
    05:00 +13°C° 0.8 mm 1 m/S 585 mmHg 87%
    06:00 +15°C° 0.1 mm 1 m/S 586 mmHg 82%
    07:00 +18°C° 0.1 mm 1 m/S 587 mmHg 77%
    08:00 +18°C° 0.1 mm 0 m/S 588 mmHg 71%
    09:00 +21°C° 0.6 mm 1 m/S 588 mmHg 71%
    10:00 +20°C° 0.6 mm 2 m/S 588 mmHg 71%
    11:00 +21°C° 0.6 mm 2 m/S 588 mmHg 71%
    12:00 +21°C° 0.9 mm 2 m/S 587 mmHg 74%
    13:00 +20°C° 0.9 mm 3 m/S 587 mmHg 77%
    14:00 +20°C° 0.9 mm 3 m/S 586 mmHg 79%
    15:00 +19°C° 0.6 mm 2 m/S 586 mmHg 83%
    16:00 +18°C° 0.6 mm 2 m/S 585 mmHg 87%
    17:00 +17°C° 0.6 mm 2 m/S 585 mmHg 91%
    18:00 +16°C° 0.1 mm 1 m/S 585 mmHg 93%
    19:00 +15°C° 0.1 mm 1 m/S 585 mmHg 95%
    20:00 +14°C° 0.1 mm 1 m/S 585 mmHg 97%
    21:00 +14°C° 0 mm 1 m/S 586 mmHg 96%
    22:00 +14°C° 0 mm 1 m/S 586 mmHg 95%
    23:00 +13°C° 0 mm 1 m/S 586 mmHg 94%
    Mehr zeigen